Location: Piotrkow Trybunalski
(51.4000°N, 19.6830°E)
Time: 07:41:47
(UTC+02:00)

STRAND 1 - Pass Details

Date: 01 March 2024
Orbit: 764 x 779 km, 98.4° (Epoch: 24 April)

Event Time Altitude Azimuth Distance (km) Brightness Sun altitude
Rises 04:23:08 0° 143° (SE) 3,254 ? -19.8°
Reaches altitude 10° 04:25:31 10° 137° (SE) 2,331 ? -19.4°
Maximum altitude 04:30:23 45° 66° (ENE) 1,062 ? -18.7°
Drops below altitude 10° 04:35:17 10° 355° (N) 2,344 ? -18.0°
Sets 04:37:41 0° 350° (N) 3,275 ? -17.6°
